Home   Weather   Pau   Past weeks

Flag for France Past Weather in Pau, Aquitaine, France — Yesterday and Last 2 Weeks

Now
34 °F

Clear.


Feels Like: 28 °F
Forecast: 24 / 33 °F
Wind: 7 mph from Northeast

Location: Pau Airport

Current Time: Jan 17, 2017 at 3:57:18 am

Latest Report: Jan 17, 2017 at 3:00 am


Visibility: 10 mi

Pressure: 30.27 "Hg

Humidity: 81%

Dew Point: 28 °F

Location of PauLocation

Past Weather in Pau — Graph

°F

Pau Temperature Yesterday

Maximum temperature yesterday: 48 °F (at 11:30 am)
Minimum temperature yesterday: 39 °F (at 12:00 am)
Average temperature yesterday: 45 °F

High & Low Weather Summary for the Past Weeks

 TemperatureHumidityPressure
High57 °F (Jan 12, 12:00 pm)100% (Jan 2, 9:00 pm)30.54 "Hg (Jan 2, 9:00 pm)
Low21 °F (Jan 7, 5:30 am)42% (Jan 8, 3:00 pm)29.98 "Hg (Jan 10, 8:30 am)
Average38 °F87%30.30 "Hg
* Reported Jan 2 2:00 am — Jan 17 2:30 am, Pau, Weather by CustomWeather, © 2017

Note: Actual official high and low records may vary slightly from our data, if they occured in-between our weather recording intervals... More about our weather records

Advertising

Pau Weather History for the Previous 24 Hours

Scroll right to see more
 ConditionsComfort  
Time TempWeatherWind HumidityBarometerVisibility
2:30 am
Tue, Jan 17
36 °FClear.6 mph81%30.27 "Hg10 mi
2:00 am37 °FPassing clouds.8 mph81%30.27 "HgN/A
1:30 am37 °FPassing clouds.8 mph81%30.27 "HgN/A
1:00 am39 °FMostly cloudy.7 mph81%30.27 "HgN/A
12:30 am39 °FLight rain. Partly cloudy.3 mph87%30.27 "HgN/A
12:00 am41 °FPartly cloudy.2 mph81%30.27 "HgN/A
11:30 pm
Mon, Jan 16
41 °FOvercast.3 mph81%30.24 "HgN/A
11:00 pm41 °FOvercast.5 mph81%30.24 "HgN/A
10:30 pm41 °FPassing clouds.2 mph87%30.24 "HgN/A
10:00 pm41 °FLight rain. Overcast.3 mph87%30.24 "HgN/A
9:30 pm43 °FMostly cloudy.5 mph81%30.24 "HgN/A
9:00 pm43 °FPassing clouds.7 mph81%30.24 "HgN/A
8:30 pm43 °FMostly cloudy.5 mph87%30.24 "HgN/A
8:00 pm45 °FMostly cloudy.6 mph81%30.24 "HgN/A
7:30 pm45 °FOvercast.2 mph81%30.24 "HgN/A
7:00 pm45 °FMostly cloudy.5 mph87%30.24 "HgN/A
6:30 pm46 °FPassing clouds.9 mph82%30.21 "HgN/A
6:00 pm46 °FMostly cloudy.8 mph87%30.21 "HgN/A
5:30 pm48 °FPartly sunny.7 mph82%30.21 "HgN/A
5:00 pm48 °FMostly cloudy.10 mph82%30.21 "HgN/A
4:30 pm48 °FPartly sunny.10 mph82%30.21 "HgN/A
4:00 pm48 °FBroken clouds.13 mph87%30.21 "HgN/A
3:30 pm48 °FMostly cloudy.12 mph87%30.21 "HgN/A
3:00 pm48 °FLight rain. Partly sunny.9 mph87%30.21 "HgN/A
2:30 pm48 °FBroken clouds.10 mph87%30.21 "HgN/A
2:00 pm46 °FRain. Broken clouds.10 mph87%30.21 "Hg4 mi
1:30 pm48 °FPartly sunny.9 mph87%30.24 "HgN/A
1:00 pm48 °FPartly sunny.9 mph87%30.24 "HgN/A
12:30 pm48 °FPartly sunny.12 mph87%30.24 "HgN/A
12:00 pm48 °FMostly cloudy.9 mph87%30.27 "HgN/A
11:30 am48 °FMostly cloudy.8 mph87%30.27 "HgN/A
11:00 am46 °FBroken clouds.10 mph93%30.27 "HgN/A
10:30 am46 °FLight rain. Mostly cloudy.10 mph93%30.24 "HgN/A
10:00 am46 °FMostly cloudy.9 mph93%30.24 "HgN/A
9:30 am46 °FLow clouds.10 mph93%30.24 "HgN/A
9:00 am46 °FLow clouds.9 mph93%30.24 "HgN/A
8:30 am46 °FLow clouds.12 mph93%30.21 "HgN/A
8:00 am46 °FLow clouds.9 mph93%30.21 "HgN/A
7:30 am46 °FDrizzle. Fog.10 mph93%30.21 "Hg3 mi
7:00 am46 °FDrizzle. Low clouds.9 mph93%30.21 "Hg5 mi
6:30 am46 °FLight rain. Fog.9 mph93%30.18 "Hg3 mi
6:00 am46 °FLight rain. Fog.9 mph93%30.18 "Hg3 mi
5:30 am46 °FLight rain. Mostly cloudy.10 mph93%30.18 "HgN/A
5:00 am46 °FRain. Fog.9 mph93%30.21 "Hg2 mi
4:30 am45 °FLight rain. Mostly cloudy.6 mph100%30.21 "HgN/A
4:00 am43 °FLight rain. Mostly cloudy.5 mph100%30.21 "Hg4 mi
3:30 am43 °FRain. Low clouds.No wind93%30.21 "Hg4 mi
3:00 am41 °FLight rain. Low clouds.1 mph100%30.21 "Hg4 mi
Weather by CustomWeather, © 2017

See weather overviewHow to use our weather pages